Location: Knowlton
(51.2333°N, 1.2667°E)
Time: 02:51:08
(UTC+00:00)

BREEZE-M DEB (TANK) - Visible Passes

Search period start: 05 August 2021 00:00
Search period end: 15 August 2021 00:00
Orbit: 333 x 11675 km, 49.7° (Epoch: 04 August)

Date Brightness Start Highest point End Pass type
(mag) Time Alt. Az. Time Alt. Az. Time Alt. Az.
05 Aug 8.1 01:14:15 14° S 01:37:46 28° SE 01:48:31 10° E visible
06 Aug 8.4 00:06:23 12° SSE 00:24:04 19° SE 00:35:06 10° E visible
07 Aug 7.1 02:47:07 12° SSW 03:15:38 47° SSE 03:23:56 10° E visible
08 Aug 7.7 01:39:05 17° S 02:02:25 37° SE 02:12:40 10° E visible
09 Aug 8.3 00:30:58 18° SSE 00:48:43 27° SE 01:00:36 10° E visible
09 Aug 8.5 23:22:48 14° SE 23:34:55 17° SE 23:46:29 10° E visible
10 Aug 6.6 03:11:26 12° SW 03:39:49 57° SSE 03:47:18 10° ENE visible
11 Aug 7.3 02:03:11 19° SSW 02:26:54 46° SSE 02:36:19 10° ENE visible
12 Aug 7.9 00:54:52 23° S 01:13:22 36° SE 01:24:51 10° E visible
12 Aug 8.3 23:46:29 21° SSE 23:59:25 26° SE 00:12:26 10° E visible
13 Aug 6.3 03:35:26 10° SW 04:03:45 67° SSE 04:10:30 10° E visible
13 Aug 8.6 22:38:02 15° SE 22:45:35 16° ESE 22:57:24 10° E visible
14 Aug 6.9 02:26:38 19° SW 02:51:07 56° SSE 02:59:39 10° ENE visible
